Track STARLINK-3549 now! 10-day predictions STARLINK-3549 is classified as:
1 51891U 22022AR 22185.91667824 -.00029911 00000-0 -18691-2 0 9994 2 51891 53.2162 271.5377 0001686 41.2202 236.7567 15.08839250 1300